Wind_Speed
18 16 14 12 11 10 9 9 9 9 8 8 7 6 6 7 7 6 7 7 8 8 8 8 8 8 9 9 10 11 10 9 8 9 9 9 9 8 6 5 5 4 4 5 6 7 8 8 8
21 18 15 14 13 12 11 11 10 10 9 8 7 7 5 5 7 5 5 5 6 6 6 7 9 9 9 9 9 9 9 9 8 6 5 5 4 3 2 1 2 3 5 7 7 7 8 8 8
23 20 18 17 17 14 12 12 12 11 10 8 7 8 6 5 6 4 4 4 5 5 5 5 7 9 9 9 8 7 6 5 5 5 4 3 2 1 0 2 4 5 6 6 7 7 8 9 10
26 23 20 20 19 17 16 15 14 12 10 9 8 8 8 8 7 6 5 5 5 6 6 6 6 6 7 8 9 7 6 7 6 5 5 3 2 2 3 4 6 7 8 8 9 9 9 10 10
29 27 24 21 20 19 19 17 16 14 12 11 10 9 10 11 10 8 8 8 7 7 6 5 5 5 6 6 5 6 5 5 5 4 4 4 4 4 5 5 6 7 8 9 10 11 11 12 13
30 28 26 25 23 22 21 19 17 16 14 13 11 10 9 9 11 11 12 11 9 8 8 8 8 8 7 6 5 4 3 3 3 3 4 4 5 5 6 7 8 10 11 11 12 13 14 14 14
36 31 29 29 27 23 22 19 18 18 17 15 14 11 11 10 10 11 11 11 11 11 10 10 10 11 10 10 9 8 7 6 6 6 6 6 6 7 8 9 10 12 12 13 14 15 16 17 18
38 33 35 31 31 26 23 21 20 20 19 16 15 14 13 13 13 13 12 12 12 11 12 11 10 9 9 8 8 7 7 7 6 6 5 6 8 9 10 11 12 13 14 15 16 17 18 20 21
41 38 35 33 31 27 26 24 23 22 19 18 17 16 14 15 15 15 14 14 13 12 12 11 11 10 9 9 8 8 7 7 7 8 8 9 10 11 12 14 14 15 16 18 19 20 21 22 23
41 40 36 34 33 30 28 27 26 24 23 23 22 19 18 17 17 16 15 15 14 13 13 13 13 12 11 10 10 9 9 9 10 11 11 12 13 14 15 16 17 18 19 21 21 22 23 25 26
39 40 38 36 35 33 32 29 29 27 24 25 24 22 21 20 19 18 18 16 15 15 15 14 13 14 14 13 12 12 11 11 12 14 15 15 16 17 18 19 21 22 23 24 25 26 27 28 29
44 42 40 38 38 36 35 31 31 28 28 28 27 24 23 22 21 20 20 18 18 18 17 16 16 17 16 15 14 14 14 14 15 16 18 19 20 21 22 23 24 25 26 27 29 30 31 32 33
46 45 43 41 39 39 38 34 34 32 29 29 28 26 24 23 23 22 21 21 21 22 20 19 20 20 19 19 18 18 18 18 19 19 20 22 24 25 26 27 28 29 29 30 31 33 34 35 37
49 48 46 44 43 42 40 37 36 32 33 32 30 27 28 25 25 23 24 25 24 25 24 22 23 23 21 20 19 19 20 20 22 23 24 25 26 27 27 29 31 33 33 33 34 35 36 38 40
53 51 50 48 47 46 44 42 33 36 37 36 33 29 30 30 27 27 28 27 28 27 26 25 25 26 24 21 21 21 22 22 24 26 27 29 31 32 33 33 34 36 37 38 38 40 40 41 42
50 52 52 51 49 47 46 41 33 40 41 39 37 34 31 32 33 30 30 31 30 29 26 25 26 27 26 25 25 24 25 25 27 27 29 31 33 35 36 38 39 42 42 43 44 44 45 45 45
54 56 54 49 48 47 48 44 37 42 43 42 41 40 36 35 38 36 37 35 34 32 29 28 29 30 29 29 28 26 26 27 28 29 30 31 32 34 37 39 40 43 45 46 47 48 48 48 48
56 54 52 48 46 49 50 50 42 44 47 44 44 41 41 40 40 43 43 38 35 36 33 33 32 33 31 29 28 28 29 30 30 31 31 31 32 34 36 39 42 44 47 49 50 50 50 50 50
55 56 57 54 52 54 54 55 48 46 51 49 46 45 46 46 46 48 47 43 40 37 39 35 35 36 36 34 33 34 34 33 34 35 35 35 37 39 42 43 44 46 48 50 51 53 53 53 54
60 60 60 59 56 58 58 59 56 52 53 52 51 50 48 49 50 51 51 48 45 44 40 40 40 41 41 39 39 40 40 39 38 38 39 40 43 45 46 48 48 49 50 50 52 53 55 55 56
63 62 61 61 60 60 63 65 62 58 57 57 56 52 50 48 49 54 56 53 49 47 46 44 45 45 46 45 46 46 45 45 43 42 42 44 47 49 51 52 54 56 55 55 55 56 57 57 58
68 64 64 65 66 66 65 72 64 62 59 59 58 55 52 52 53 54 55 57 52 51 52 51 51 51 51 51 52 51 51 50 50 49 49 49 51 53 56 59 59 60 60 59 59 58 57 58 59
72 67 66 66 68 71 71 74 70 63 61 57 55 57 58 55 54 53 53 57 59 55 55 56 57 56 56 57 57 57 57 57 56 56 56 56 57 57 59 61 63 65 66 64 61 59 60 60 61
64 65 62 61 65 77 73 71 77 68 63 58 56 55 54 55 55 54 53 54 59 60 61 60 60 61 61 62 63 63 63 62 62 62 63 62 60 61 62 63 67 69 69 65 62 62 64 64 63
53 57 57 59 59 74 69 65 74 74 64 61 55 50 52 53 53 52 50 53 56 61 63 63 64 65 66 67 68 68 67 68 67 66 66 65 65 66 67 68 68 70 67 64 64 65 64 64 65
47 46 51 53 57 60 62 70 71 72 63 55 54 51 49 48 47 49 50 52 55 58 61 64 65 66 67 69 70 70 71 70 69 68 69 69 70 71 70 72 70 67 66 66 66 66 66 67 67
44 51 48 49 51 57 63 69 68 66 66 55 52 52 48 46 48 51 52 53 55 56 59 61 63 65 68 69 68 69 69 69 69 70 71 72 72 73 73 72 70 68 68 67 66 66 67 67 68
45 44 47 52 57 61 63 62 61 56 55 55 54 51 49 48 48 47 49 52 55 57 59 60 62 64 66 67 68 68 68 68 69 71 71 72 72 72 70 69 68 67 67 67 67 66 67 69 71
46 48 50 51 53 56 57 57 57 53 51 51 52 52 54 52 51 54 57 58 57 58 58 61 62 64 65 66 67 66 67 68 69 70 70 69 68 68 68 68 68 67 67 67 66 67 69 70 67
47 49 49 51 51 51 53 52 44 47 49 52 53 55 55 53 52 54 56 59 60 61 60 62 64 65 66 68 68 67 68 70 70 69 68 68 69 69 69 69 68 68 67 66 68 69 67 63 59
Wind_Direction
200 198 193 180 190 188 180 188 174 161 145 134 129 122 125 126 125 135 137 123 109 103 98 96 105 108 105 122 144 154 152 139 125 113 99 99 94 91 91 84 74 60 43 28 15 3 356 354 343
207 205 199 192 200 201 192 201 198 188 174 171 161 143 143 146 131 146 136 130 109 96 89 89 91 99 100 103 116 144 159 161 155 140 143 136 125 124 106 77 45 2 352 347 346 345 341 343 341
211 209 207 201 208 206 207 206 199 200 185 183 184 173 166 174 147 176 151 139 126 119 107 97 91 93 98 103 103 106 119 142 152 142 127 124 130 149 293 330 332 332 330 333 330 331 333 333 333
214 211 205 207 212 210 212 220 214 210 213 211 204 193 192 199 191 187 174 169 153 141 136 136 126 118 111 110 116 122 130 134 142 159 167 185 207 252 285 304 311 314 320 323 323 320 319 318 319
214 213 210 212 214 222 220 218 223 223 207 208 197 198 202 201 207 207 209 194 182 176 168 161 156 141 132 129 132 138 141 152 165 192 209 223 247 266 279 290 298 298 299 300 303 303 302 303 304
217 214 215 218 219 221 223 226 227 228 210 201 194 190 200 203 211 211 217 212 205 197 193 191 185 174 169 166 171 175 178 188 188 199 216 223 230 245 258 264 269 275 279 283 288 292 295 297 297
221 215 217 224 228 223 226 229 229 229 215 206 207 208 209 213 220 224 223 221 216 211 208 204 205 199 194 192 194 201 206 213 217 222 231 247 257 262 265 268 276 284 289 293 295 297 300 305 309
223 222 220 227 229 225 229 232 237 231 224 220 222 224 227 229 231 236 232 226 224 222 219 216 213 212 212 213 218 222 224 232 246 255 265 273 281 288 294 298 301 304 307 307 309 312 314 314 314
224 223 224 226 229 228 228 231 233 231 230 232 232 233 235 236 237 239 236 232 231 235 238 238 235 232 225 229 232 236 242 251 260 272 280 288 292 296 300 302 305 307 310 310 311 311 312 312 313
223 223 223 228 230 230 235 239 237 233 226 234 237 239 246 241 240 236 236 235 233 239 242 244 244 241 240 240 242 248 255 264 273 278 283 290 295 299 303 305 306 306 306 305 305 305 307 308 310
221 223 221 224 231 232 237 242 242 236 234 239 244 245 246 241 238 235 234 231 236 241 246 250 254 251 247 247 252 258 265 272 281 289 294 296 298 302 303 304 304 305 306 306 306 306 306 308 309
222 225 226 225 229 233 238 242 245 235 235 238 245 249 246 243 235 233 232 236 238 243 249 258 263 264 265 264 265 265 270 276 282 287 292 296 298 298 300 302 304 304 305 306 306 306 306 307 307
221 225 227 227 230 236 240 240 237 239 239 245 250 255 247 242 239 236 236 239 240 245 252 259 261 262 265 266 268 272 276 280 284 288 292 295 294 296 299 300 300 300 301 303 303 304 305 305 306
221 225 228 231 233 237 240 239 234 239 242 245 250 255 253 246 240 238 240 241 242 247 249 252 255 256 256 258 263 269 275 280 285 287 289 293 294 296 298 300 300 299 301 302 303 303 304 304 304
224 227 230 232 236 239 240 237 238 242 242 246 250 250 242 246 242 243 247 247 249 253 258 258 260 257 256 257 261 265 271 277 282 287 290 292 293 295 298 299 300 298 298 298 298 298 300 301 302
229 227 232 233 236 240 242 236 237 244 243 246 251 254 249 246 248 249 252 252 253 253 256 260 261 260 259 261 265 268 273 278 281 285 290 294 297 299 300 300 299 297 297 296 295 295 296 297 298
232 233 234 236 239 240 241 240 241 246 248 248 250 250 252 248 248 248 247 249 254 255 254 253 253 254 254 257 262 268 271 274 278 284 288 292 296 298 298 298 298 297 296 295 294 294 294 294 294
233 237 238 238 241 245 243 243 242 247 251 252 254 259 261 259 255 251 253 252 250 256 252 253 254 256 257 259 262 263 266 269 275 280 283 286 291 294 297 299 298 296 294 293 292 292 292 292 292
237 237 239 238 239 243 247 248 244 247 252 255 259 262 262 264 262 256 255 256 258 254 257 255 256 257 258 259 259 259 262 266 271 275 277 282 287 292 295 299 303 301 296 294 293 292 292 294 294
236 238 240 242 242 245 246 250 251 247 252 256 257 259 263 265 269 268 259 259 260 259 257 258 257 257 259 259 259 260 263 265 270 276 281 286 290 293 296 299 301 303 302 295 294 294 294 294 295
237 240 242 246 247 248 249 248 251 251 251 255 259 262 264 269 271 269 265 259 259 261 260 257 259 258 259 260 261 264 265 268 271 274 279 284 289 292 294 297 301 302 304 302 297 294 293 294 294
239 241 245 247 249 250 251 253 248 253 254 256 260 266 268 267 266 267 268 263 259 260 261 261 259 260 261 262 264 266 268 271 274 276 279 282 286 289 290 292 296 299 301 300 295 294 293 292 292
240 243 246 249 251 250 250 255 254 252 255 259 263 264 267 269 269 267 266 262 260 258 258 260 262 263 263 264 266 268 271 273 275 277 279 279 281 287 289 290 293 296 297 296 292 291 291 291 291
239 241 241 245 247 248 249 253 256 256 257 258 259 262 265 267 268 267 266 261 256 257 258 258 259 262 264 266 268 269 271 274 277 278 280 282 284 286 287 288 291 293 294 293 290 289 289 289 289
241 242 245 246 245 248 250 250 257 260 256 258 260 260 260 262 263 265 265 262 257 256 258 259 259 260 262 264 266 268 271 273 275 277 280 282 283 284 284 287 290 292 290 287 287 287 286 286 287
241 246 249 254 258 257 255 253 252 258 261 261 263 264 264 263 263 263 264 263 260 258 257 258 260 261 262 264 266 268 270 272 274 276 278 280 281 282 284 287 289 289 287 287 286 285 286 287 288
240 244 249 251 254 256 254 252 252 255 259 265 269 269 267 263 260 259 258 260 260 259 259 259 259 260 262 264 266 267 269 270 273 275 277 279 281 283 286 287 287 285 284 284 284 286 286 286 286
241 242 245 247 249 253 258 260 259 262 262 267 271 271 268 264 261 264 264 263 262 261 262 262 262 262 263 264 266 267 269 271 273 276 278 281 283 285 284 284 282 282 283 284 284 284 284 285 287
249 248 249 251 253 259 264 261 261 265 268 270 270 270 268 267 266 265 264 264 264 264 264 264 265 266 266 266 267 269 272 273 276 279 281 282 282 281 280 279 280 281 282 282 282 282 284 285 286
244 245 248 250 253 256 261 256 264 268 267 267 267 267 268 269 267 265 264 265 266 266 266 267 268 268 269 269 271 273 274 277 280 279 279 279 278 278 278 278 279 279 280 280 282 284 286 286 286
Height
5860 5862 5864 5864 5867 5865 5866 5868 5868 5868 5868 5867 5868 5867 5867 5867 5868 5870 5868 5867 5866 5867 5867 5867 5867 5866 5866 5866 5867 5869 5870 5872 5872 5872 5872 5872 5872 5871 5871 5871 5871 5871 5870 5870 5869 5869 5868 5867 5866
5858 5861 5863 5864 5865 5865 5866 5867 5868 5868 5869 5869 5869 5868 5867 5868 5869 5869 5869 5868 5868 5868 5868 5868 5868 5868 5868 5868 5869 5870 5871 5872 5873 5873 5873 5874 5874 5874 5874 5873 5872 5871 5871 5870 5870 5869 5867 5866 5864
5856 5859 5863 5862 5863 5864 5866 5867 5868 5868 5869 5869 5869 5868 5867 5869 5870 5869 5869 5869 5869 5869 5869 5869 5869 5869 5869 5869 5870 5871 5872 5873 5873 5874 5875 5875 5875 5875 5874 5874 5873 5872 5871 5869 5868 5868 5867 5865 5864
5853 5858 5862 5861 5861 5863 5865 5866 5868 5868 5868 5869 5869 5869 5868 5868 5870 5870 5870 5871 5871 5870 5870 5870 5870 5870 5870 5870 5870 5871 5872 5872 5873 5873 5873 5874 5874 5873 5873 5872 5871 5870 5870 5868 5868 5866 5865 5864 5862
5851 5855 5859 5859 5860 5862 5864 5865 5866 5867 5867 5868 5868 5868 5868 5869 5870 5870 5871 5871 5871 5871 5871 5871 5871 5871 5871 5871 5871 5871 5872 5872 5872 5872 5872 5872 5872 5872 5871 5871 5870 5870 5869 5868 5866 5865 5864 5863 5861
5847 5852 5856 5856 5858 5860 5862 5864 5864 5865 5866 5867 5867 5867 5868 5868 5869 5870 5871 5871 5871 5871 5871 5872 5872 5872 5871 5871 5871 5872 5872 5872 5872 5873 5873 5872 5872 5871 5871 5870 5869 5868 5868 5867 5866 5864 5863 5861 5859
5843 5848 5852 5852 5855 5858 5860 5862 5864 5864 5864 5865 5866 5867 5868 5868 5869 5869 5870 5871 5871 5871 5871 5871 5871 5871 5871 5871 5872 5872 5872 5872 5872 5872 5872 5872 5871 5871 5870 5868 5867 5867 5866 5865 5864 5862 5860 5859 5857
5841 5844 5848 5850 5853 5856 5858 5860 5862 5863 5864 5865 5865 5865 5866 5867 5868 5869 5870 5870 5871 5870 5870 5870 5870 5870 5870 5871 5871 5871 5871 5871 5871 5871 5871 5871 5870 5869 5868 5868 5867 5866 5864 5863 5862 5861 5859 5857 5854
5836 5841 5843 5847 5850 5854 5855 5857 5859 5860 5862 5863 5863 5864 5864 5865 5866 5867 5868 5869 5870 5870 5870 5870 5870 5870 5869 5870 5870 5870 5870 5870 5870 5870 5869 5869 5868 5868 5867 5867 5866 5865 5863 5862 5860 5858 5855 5854 5851
5831 5836 5840 5844 5846 5849 5851 5854 5856 5858 5860 5861 5861 5862 5862 5863 5864 5865 5866 5867 5869 5869 5869 5869 5869 5869 5869 5869 5869 5869 5869 5869 5868 5868 5867 5867 5866 5866 5865 5864 5863 5862 5861 5859 5857 5855 5853 5851 5848
5826 5830 5835 5839 5842 5844 5847 5850 5852 5854 5858 5858 5860 5860 5860 5860 5862 5862 5864 5865 5866 5866 5867 5867 5868 5868 5868 5869 5869 5869 5868 5868 5867 5866 5866 5865 5865 5864 5863 5862 5861 5860 5858 5857 5855 5852 5850 5848 5845
5822 5825 5830 5834 5838 5840 5843 5845 5848 5851 5853 5855 5856 5857 5856 5857 5858 5860 5862 5862 5863 5864 5865 5865 5865 5866 5866 5867 5867 5867 5866 5866 5865 5864 5864 5863 5862 5861 5860 5859 5858 5856 5855 5853 5851 5848 5846 5843 5841
5817 5821 5825 5829 5831 5835 5838 5840 5843 5847 5849 5850 5852 5853 5853 5854 5855 5857 5859 5860 5860 5861 5862 5863 5862 5863 5863 5863 5863 5863 5862 5862 5861 5861 5860 5860 5859 5858 5857 5855 5853 5852 5851 5848 5846 5843 5841 5838 5836
5811 5814 5818 5823 5825 5828 5831 5834 5838 5843 5843 5844 5847 5850 5850 5851 5851 5854 5855 5855 5857 5858 5859 5860 5859 5859 5859 5860 5860 5859 5859 5858 5857 5856 5856 5855 5855 5853 5853 5851 5849 5846 5845 5843 5840 5838 5835 5833 5830
5805 5808 5812 5816 5819 5821 5825 5827 5837 5836 5837 5839 5842 5844 5846 5847 5848 5850 5850 5852 5853 5854 5855 5855 5854 5855 5856 5856 5856 5855 5854 5854 5852 5851 5851 5849 5848 5847 5846 5845 5843 5841 5839 5837 5835 5832 5830 5828 5825
5798 5801 5803 5809 5814 5816 5819 5824 5833 5828 5831 5834 5836 5838 5840 5843 5843 5846 5845 5846 5847 5849 5849 5850 5849 5849 5850 5850 5850 5849 5848 5847 5846 5845 5844 5843 5842 5841 5839 5838 5836 5833 5832 5830 5827 5825 5822 5820 5817
5790 5793 5798 5804 5808 5810 5812 5818 5825 5822 5823 5827 5829 5831 5835 5838 5837 5839 5838 5840 5841 5842 5844 5845 5845 5844 5845 5845 5844 5843 5842 5841 5840 5840 5839 5837 5836 5834 5832 5830 5828 5825 5823 5821 5819 5816 5813 5811 5808
5785 5789 5794 5801 5804 5804 5805 5807 5817 5816 5816 5821 5822 5826 5827 5829 5831 5830 5830 5834 5836 5837 5838 5838 5839 5838 5838 5839 5839 5838 5837 5835 5835 5834 5833 5831 5830 5828 5825 5823 5820 5818 5815 5812 5809 5807 5804 5801 5798
5778 5781 5784 5789 5793 5794 5796 5798 5808 5812 5808 5813 5819 5821 5821 5821 5822 5821 5822 5826 5828 5830 5830 5832 5832 5831 5831 5832 5832 5831 5830 5829 5828 5827 5825 5824 5822 5820 5818 5816 5813 5810 5807 5803 5800 5797 5794 5791 5788
5768 5772 5776 5779 5783 5784 5788 5790 5796 5805 5805 5806 5809 5812 5815 5814 5815 5815 5816 5818 5819 5820 5823 5824 5823 5822 5822 5822 5822 5821 5821 5821 5820 5818 5816 5813 5811 5809 5807 5805 5803 5801 5797 5794 5790 5788 5785 5782 5778
5758 5763 5768 5770 5771 5775 5775 5778 5784 5794 5797 5799 5801 5805 5808 5810 5809 5806 5805 5809 5811 5812 5812 5814 5813 5813 5812 5812 5812 5811 5811 5810 5810 5809 5807 5805 5803 5800 5797 5794 5791 5789 5787 5783 5780 5777 5774 5772 5767
5746 5753 5755 5757 5758 5763 5767 5760 5778 5783 5790 5793 5793 5797 5799 5798 5798 5797 5797 5798 5802 5801 5801 5802 5803 5803 5802 5802 5801 5801 5800 5799 5798 5797 5796 5794 5792 5790 5787 5784 5781 5778 5775 5773 5769 5765 5762 5758 5755
5738 5742 5743 5744 5745 5748 5756 5754 5762 5776 5780 5786 5786 5784 5784 5785 5787 5788 5787 5787 5789 5791 5791 5790 5790 5790 5790 5790 5789 5788 5788 5787 5786 5784 5783 5782 5780 5777 5775 5772 5770 5767 5764 5760 5757 5754 5750 5746 5743
5723 5727 5729 5728 5731 5733 5743 5748 5748 5762 5770 5774 5775 5774 5773 5773 5773 5774 5774 5775 5776 5777 5777 5777 5778 5778 5778 5777 5776 5775 5774 5774 5773 5771 5770 5768 5766 5764 5761 5759 5756 5753 5750 5746 5744 5741 5737 5734 5730
5712 5716 5717 5717 5718 5725 5732 5736 5746 5742 5756 5758 5760 5761 5760 5761 5761 5761 5761 5762 5762 5763 5763 5763 5764 5764 5764 5763 5762 5761 5761 5760 5759 5758 5756 5754 5751 5749 5746 5743 5740 5738 5735 5733 5730 5727 5723 5720 5716
5706 5708 5710 5710 5711 5716 5717 5723 5736 5733 5738 5745 5744 5746 5748 5748 5749 5750 5749 5749 5749 5749 5749 5748 5749 5749 5748 5748 5748 5748 5747 5745 5744 5743 5741 5738 5735 5733 5730 5728 5724 5722 5719 5716 5713 5710 5706 5703 5699
5694 5692 5704 5701 5700 5699 5702 5711 5720 5726 5726 5730 5732 5734 5733 5735 5736 5737 5736 5735 5735 5734 5734 5735 5734 5733 5733 5732 5732 5732 5731 5730 5729 5727 5724 5722 5719 5716 5714 5711 5708 5705 5702 5699 5696 5693 5689 5686 5682
5682 5689 5686 5685 5686 5686 5692 5698 5709 5716 5718 5716 5718 5718 5720 5722 5724 5724 5723 5722 5720 5720 5720 5721 5720 5719 5719 5719 5717 5716 5715 5714 5713 5711 5708 5705 5703 5700 5698 5695 5691 5688 5686 5683 5680 5677 5673 5670 5666
5674 5675 5677 5677 5678 5679 5684 5691 5697 5702 5705 5707 5704 5703 5705 5707 5708 5708 5706 5707 5708 5707 5705 5705 5705 5705 5704 5703 5701 5702 5701 5699 5697 5695 5693 5690 5687 5684 5682 5678 5675 5672 5669 5666 5664 5660 5657 5653 5650
5661 5664 5666 5665 5669 5669 5670 5676 5692 5691 5691 5690 5691 5690 5688 5690 5692 5690 5689 5691 5692 5692 5691 5691 5690 5688 5688 5687 5687 5686 5683 5682 5680 5678 5675 5672 5670 5667 5664 5661 5658 5655 5652 5649 5646 5643 5640 5637 5635